Weather History for KY70 - December, 2011

Change the Weather History Date:

Tuesday, December 27, 2011

  Actual Average (KGRR) Record (KGRR)
Temperature  
Mean Temperature 34 °F 26 °F  
Max Temperature 38 °F 32 °F 60 °F (2008)
Min Temperature 28 °F 21 °F -5 °F (1993)
Degree Days  
Heating Degree Days 32 39  
Month to date heating degree days 954  
Since 1 July heating degree days 2292  
Cooling Degree Days 0 0  
Month to date cooling degree days 0  
Year to date cooling degree days 699  
Moisture  
Dew Point 31 °F    
Average Humidity 88    
Maximum Humidity 98    
Minimum Humidity 67    
Precipitation  
Precipitation 0.15 in 0.07 in 1.51 in (2008)
Month to date precipitation 2.20  
Year to date precipitation 37.97  
Snow  
Snow 0.00 in 0.80 in 9.60 in (2001)
Month to date snowfall 18.7  
Since 1 July snowfall 26.0  
Snow Depth -    
Sea Level Pressure  
Sea Level Pressure 29.61 in    
Wind  
Wind Speed 8 mph (SW)    
Max Wind Speed 18 mph    
Max Gust Speed 30 mph    
Visibility 5 miles    
Events Rain , Snow    
T = Trace of Precipitation, MM = Missing Value Source: NWS Daily Summary

Daily Weather History Graph

Daily Weather History Graph

Search for Another Location

Airport or City:

Trip Planner

Search our weather history database for the weather conditions in past years. The results will help you decide how hot, cold, wet, or windy it might be!

Date:

Astronomy

Dec. 27, 2011 Rise Set
Actual Time 8:10 AM EST 5:12 PM EST
Civil Twilight 7:38 AM EST 5:44 PM EST
Nautical Twilight 7:02 AM EST 6:20 PM EST
Astronomical Twilight 6:27 AM EST 6:54 PM EST
Moon 10:00 AM EST (12/27) 8:50 PM EST (12/27)
Length of Visible Light 10h 06m
Length of Day
9h 01m
Waxing Crescent, 11% of the Moon is Illuminated
Dec 27
Waxing Crescent
Jan 1
First Quarter
Jan 9
Full
Jan 16
Last Quarter
Jan 23
New

Hourly Weather History & Observations

Time (EST) Temp. Windchill Dew Point Humidity Pressure Visibility Wind Dir Wind Speed Gust Speed Precip Events Conditions
12:13 AM 37.9 °F 30.5 °F 28.4 °F 69% 29.86 in 10.0 mi SW 11.5 mph - N/A   Clear
12:33 AM 38.1 °F 31.2 °F 27.9 °F 67% 29.84 in 10.0 mi SW 10.4 mph - N/A   Scattered Clouds
12:53 AM 37.9 °F 32.1 °F 27.7 °F 67% 29.84 in 10.0 mi SSW 8.1 mph - N/A   Scattered Clouds
1:13 AM 37.6 °F 31.0 °F 27.9 °F 68% 29.82 in 10.0 mi SSW 9.2 mph - N/A   Mostly Cloudy
1:33 AM 37.4 °F 31.4 °F 28.0 °F 69% 29.81 in 10.0 mi SSW 8.1 mph - N/A   Overcast
1:53 AM 37.0 °F 33.3 °F 28.0 °F 70% 29.78 in 10.0 mi SSW 4.6 mph - N/A   Mostly Cloudy
2:13 AM 36.9 °F 30.1 °F 28.4 °F 71% 29.79 in 10.0 mi SSW 9.2 mph - N/A   Overcast
2:33 AM 37.4 °F 31.4 °F 27.9 °F 68% 29.76 in 10.0 mi WSW 8.1 mph - N/A   Overcast
2:53 AM 37.2 °F 33.6 °F 28.0 °F 69% 29.77 in 10.0 mi South 4.6 mph - N/A   Overcast
3:13 AM 36.5 °F 31.0 °F 28.8 °F 74% 29.76 in 10.0 mi SSW 6.9 mph - N/A   Overcast
3:33 AM 36.7 °F 32.0 °F 28.4 °F 72% 29.74 in 10.0 mi SSW 5.8 mph - N/A   Overcast
3:53 AM 36.7 °F 29.9 °F 29.1 °F 74% 29.74 in 10.0 mi South 9.2 mph - N/A   Overcast
4:13 AM 36.7 °F 29.9 °F 29.3 °F 75% 29.73 in 10.0 mi South 9.2 mph - N/A   Overcast
4:33 AM 36.7 °F 29.4 °F 29.8 °F 76% 29.72 in 10.0 mi SSW 10.4 mph - N/A   Drizzle
4:53 AM 35.8 °F 28.8 °F 31.1 °F 83% 29.70 in 7.0 mi SSW 9.2 mph - N/A Rain Light Rain
5:13 AM 35.6 °F 29.9 °F 32.0 °F 87% 29.68 in 7.0 mi South 6.9 mph - N/A   Overcast
5:53 AM 35.4 °F 29.7 °F 32.0 °F 87% 29.67 in 7.0 mi South 6.9 mph - N/A   Overcast
6:33 AM 34.9 °F 29.0 °F 32.0 °F 89% 29.65 in 5.0 mi South 6.9 mph - N/A Snow Light Snow
7:13 AM 33.4 °F 28.1 °F 32.0 °F 94% 29.63 in 2.0 mi South 5.8 mph - N/A Snow Light Snow
7:33 AM 33.1 °F 28.7 °F 32.0 °F 96% 29.62 in 2.5 mi SSE 4.6 mph - 0.01 in Snow Light Snow
7:53 AM 32.9 °F 28.5 °F 32.0 °F 96% 29.61 in 2.0 mi SSE 4.6 mph - 0.02 in Snow Light Snow
7:59 AM 32.9 °F 27.5 °F 32.0 °F 96% 29.60 in 1.8 mi SE 5.8 mph - 0.03 in Snow Light Snow
8:13 AM 32.9 °F 27.5 °F 32.0 °F 96% 29.60 in 1.0 mi SSE 5.8 mph - N/A Snow Light Snow
8:33 AM 32.9 °F 28.5 °F 32.2 °F 97% 29.59 in 1.0 mi SSE 4.6 mph - 0.02 in Snow Light Snow
8:53 AM 32.9 °F 28.5 °F 32.2 °F 97% 29.59 in 0.5 mi South 4.6 mph - 0.04 in Snow Snow
8:59 AM 32.9 °F 28.5 °F 32.2 °F 97% 29.59 in 0.5 mi South 4.6 mph - 0.04 in Snow Light Snow
9:13 AM 32.9 °F 27.5 °F 32.2 °F 97% 29.59 in 0.8 mi South 5.8 mph - 0.01 in Snow Light Snow
9:33 AM 32.9 °F 27.5 °F 32.4 °F 98% 29.59 in 0.8 mi South 5.8 mph - 0.02 in Snow Light Snow
9:53 AM 32.9 °F 26.7 °F 32.4 °F 98% 29.59 in 0.8 mi South 6.9 mph - 0.04 in Snow Light Snow
9:59 AM 32.9 °F 26.7 °F 32.4 °F 98% 29.58 in 0.8 mi South 6.9 mph - 0.04 in Snow Light Snow
10:13 AM 33.1 °F 27.7 °F 32.4 °F 97% 29.58 in 0.8 mi South 5.8 mph - 0.01 in Snow Light Snow
10:33 AM 32.9 °F 27.5 °F 32.4 °F 98% 29.57 in 0.8 mi South 5.8 mph - 0.02 in Snow Light Snow
10:53 AM 33.1 °F 28.7 °F 32.5 °F 98% 29.56 in 1.2 mi South 4.6 mph - 0.02 in Snow Light Snow
10:59 AM 33.1 °F 27.7 °F 32.5 °F 98% 29.55 in 1.2 mi South 5.8 mph - 0.02 in Snow Light Snow
11:13 AM 33.1 °F 28.7 °F 32.4 °F 97% 29.53 in 1.0 mi SW 4.6 mph - 0.01 in Snow Light Snow
11:33 AM 33.1 °F 30.0 °F 32.5 °F 98% 29.51 in 1.0 mi SSW 3.5 mph - 0.01 in Snow Light Snow
11:53 AM 33.1 °F 30.0 °F 32.5 °F 98% 29.50 in 1.2 mi SW 3.5 mph - 0.01 in Snow Light Snow
11:59 AM 33.1 °F 30.0 °F 32.5 °F 98% 29.49 in 1.2 mi SW 3.5 mph - 0.02 in Snow Light Snow
12:13 PM 33.1 °F 30.0 °F 32.5 °F 98% 29.48 in 1.0 mi WSW 3.5 mph - N/A Snow Light Snow
12:33 PM 33.3 °F 28.9 °F 32.7 °F 98% 29.47 in 1.0 mi WSW 4.6 mph - N/A Snow Light Snow
12:53 PM 33.4 °F 29.1 °F 32.9 °F 98% 29.45 in 1.5 mi West 4.6 mph - N/A Snow Light Snow
1:13 PM 33.4 °F 27.3 °F 32.5 °F 96% 29.44 in 1.5 mi West 6.9 mph - N/A Snow Light Snow
1:33 PM 33.3 °F 26.4 °F 32.4 °F 96% 29.44 in 1.2 mi West 8.1 mph - N/A Snow Light Snow
1:53 PM 33.3 °F 25.1 °F 32.4 °F 96% 29.43 in 2.0 mi West 10.4 mph - N/A Snow Light Snow
2:13 PM 33.4 °F 26.6 °F 32.7 °F 97% 29.43 in 1.5 mi West 8.1 mph - N/A Snow Light Snow
2:33 PM 33.8 °F 27.0 °F 33.1 °F 97% 29.44 in 1.5 mi WNW 8.1 mph - N/A   Overcast
3:13 PM 34.2 °F 29.0 °F 33.6 °F 98% 29.46 in 2.0 mi WNW 5.8 mph - N/A   Overcast
3:33 PM 34.7 °F 28.8 °F 33.8 °F 97% 29.47 in 3.0 mi WNW 6.9 mph - N/A   Overcast
3:53 PM 34.7 °F 27.5 °F 33.8 °F 97% 29.48 in 2.5 mi WNW 9.2 mph - N/A   Overcast
4:13 PM 34.7 °F 28.1 °F 33.8 °F 97% 29.48 in 2.5 mi WNW 8.1 mph - N/A   Overcast
4:33 PM 34.9 °F 29.0 °F 33.8 °F 96% 29.50 in 3.0 mi WNW 6.9 mph - N/A   Overcast
4:53 PM 35.1 °F 29.3 °F 34.0 °F 96% 29.50 in 3.0 mi WNW 6.9 mph - N/A   Overcast
5:13 PM 35.6 °F 29.2 °F 34.2 °F 94% 29.51 in 4.0 mi WNW 8.1 mph - N/A   Overcast
5:33 PM 35.6 °F 25.2 °F 33.6 °F 92% 29.53 in 7.0 mi NW 18.4 mph 26.5 mph N/A Rain Light Rain
5:53 PM 34.3 °F 24.6 °F 31.5 °F 89% 29.55 in 10.0 mi NNW 15.0 mph 29.9 mph N/A Snow Light Snow
6:13 PM 34.0 °F 25.0 °F 31.5 °F 90% 29.57 in 10.0 mi NW 12.7 mph 17.3 mph N/A   Overcast
6:53 PM 33.3 °F 24.6 °F 29.7 °F 87% 29.60 in 10.0 mi NW 11.5 mph 24.2 mph N/A   Overcast
7:13 PM 32.4 °F 22.1 °F 28.4 °F 85% 29.62 in 10.0 mi NW 15.0 mph 26.5 mph N/A   Overcast
7:33 PM 32.0 °F 20.8 °F 26.8 °F 81% 29.63 in 10.0 mi NW 17.3 mph 26.5 mph N/A   Overcast
8:13 PM 31.1 °F 22.4 °F 25.3 °F 79% 29.66 in 10.0 mi NW 10.4 mph 25.3 mph N/A   Overcast
8:33 PM 30.2 °F 20.2 °F 24.8 °F 80% 29.67 in 10.0 mi NW 12.7 mph 27.6 mph N/A   Overcast
8:53 PM 29.3 °F 17.7 °F 23.9 °F 80% 29.68 in 10.0 mi NW 16.1 mph 25.3 mph N/A   Overcast
9:13 PM 29.1 °F 18.9 °F 23.7 °F 80% 29.69 in 10.0 mi NW 12.7 mph 25.3 mph N/A   Overcast
9:33 PM 28.9 °F 18.6 °F 23.7 °F 81% 29.70 in 10.0 mi NW 12.7 mph 21.9 mph N/A   Overcast
9:53 PM 28.8 °F 17.0 °F 23.5 °F 81% 29.71 in 10.0 mi NW 16.1 mph 26.5 mph N/A   Overcast
10:13 PM 28.4 °F 16.6 °F 22.6 °F 79% 29.72 in 10.0 mi NW 16.1 mph 27.6 mph N/A   Overcast
10:33 PM 27.9 °F 15.1 °F 21.0 °F 75% 29.74 in 10.0 mi NW 18.4 mph 29.9 mph N/A   Overcast
10:53 PM 27.9 °F 17.8 °F 21.2 °F 76% 29.75 in 10.0 mi NW 11.5 mph 23.0 mph N/A   Overcast
11:13 PM 27.9 °F 14.7 °F 20.5 °F 74% 29.77 in 10.0 mi NW 19.6 mph 33.4 mph N/A   Overcast
11:33 PM 27.5 °F 12.9 °F 19.4 °F 72% 29.77 in 10.0 mi NW 24.2 mph 32.2 mph N/A   Overcast
11:53 PM 27.3 °F 15.6 °F 19.9 °F 74% 29.79 in 10.0 mi NW 15.0 mph 24.2 mph N/A   Overcast